[[{"header":{"parameterUnit":"m.s-1","parameterCategory":2,"la1":30.2991,"la2":30.254,"lo1":-89.0895,"lo2":-89.0444,"dy":0.0017,"dx":0.0017,"nx":28,"ny":28,"refTime":"2023-07-23T09:00:00:Z","depth":"0","parameterNumber":2,"parameterNumberName":"U-component_of_CURRENTS"},"data":[0,0,0,0,0,0,0,0,0,0,0,0,0,0,0,0,0,0,0,0,0,0,0,0,0,0,0,0,0,0,0,0,0,0,0,0,0,0,0,0,0,0,0,0,0,0,0,0,0,0,0,0,0,0,0,0,0,0,-0.0086,-0.0086,0,-0.0059,-0.0059,-0.0059,-0.0072,-0.0072,-0.0073,-0.0073,0.0019,0.0022,0.0025,0,0,0,0,0,0,0,0,0,0,0,0,0,-0.0132,-0.0132,-0.0086,-0.0086,-0.0085,-0.0059,-0.0059,-0.0058,-0.0072,-0.0072,-0.0073,-0.0073,0.0019,0.0022,0.0025,0,0,0,0,0,0,0,0,0,0,0,0,0,-0.0112,-0.0131,-0.0086,-0.0087,-0.0086,-0.0059,-0.0059,-0.0058,-0.0072,-0.0072,-0.0073,-0.0074,0.0017,0.0022,0.0026,0.0067,0,0,0.0039,0.0041,0,0,0,0,0,0,0,0,-0.0113,-0.011,-0.0087,-0.0087,-0.0086,-0.0067,-0.0041,-0.0012,-0.0071,-0.008,-0.0073,-0.0074,-0.0001,0.0005,0.0007,0.0071,0.0075,0.004,0.0042,0.0044,0.0045,0,0,0,0,0,0,0,-0.0114,-0.0111,-0.0078,-0.0087,-0.0086,-0.0082,-0.008,-0.0036,-0.0038,-0.0079,-0.0079,-0.0072,-0.0001,0.0002,0.0009,0.0077,0.004,0.0043,0.0046,0.0048,0.018,0.0181,0,0,0,0,0,0,-0.0112,-0.0113,-0.0079,-0.0077,-0.0099,-0.008,-0.0078,-0.0075,-0.004,-0.0035,-0.0071,-0.0073,-0.0005,0.0004,0.0012,0.0069,0.0044,0.0048,0.0051,0.0179,0.018,0.0181,0,0,0,0,0,0,-0.0114,-0.011,-0.008,-0.0092,-0.0088,-0.0079,-0.0074,-0.0074,-0.0066,-0.0034,-0.0029,-0.0064,-0.0005,0.0006,0.0055,0.0072,0.005,0.0054,0.0178,0.0179,0.0181,0.0179,0,0,0,0,0,0,-0.0115,-0.0111,-0.0099,-0.0092,-0.0087,-0.0064,-0.0073,-0.0073,-0.0059,-0.0061,-0.0025,-0.0018,-0.0005,0.0048,0.0059,0.0078,0.0058,0.0177,0.0179,0.018,0.0178,0.018,0.0182,0,0,0,0,0,-0.0117,-0.0095,-0.0099,-0.0094,-0.0074,-0.0064,-0.0061,-0.0059,-0.0058,-0.0055,-0.0028,-0.0019,0.0066,0.0053,0.0065,0.0086,0.0176,0.0178,0.018,0.0177,0.0179,0.0182,0,0,0,0,0,0,-0.0104,-0.0094,-0.0098,-0.0073,-0.0071,-0.0065,-0.0047,-0.0051,-0.0029,-0.0024,-0.0,0.0009,0.0056,0.0076,0.006,0.0128,0.0121,0.0125,0.0114,0.0117,0.0119,0.0103,0.0061,0,0,0,0,0,-0.0097,-0.008,-0.0078,-0.0058,-0.0053,-0.005,-0.0041,-0.0046,-0.0028,-0.002,0.0,0.0034,0.0075,0.0098,0.013,0.0177,0.0178,0.0196,0.0198,0.02,0.0196,0.0211,0.0213,0.0188,0.0188,0.0188,0,0,-0.0084,-0.0075,-0.0066,-0.0054,-0.0047,-0.0041,-0.0047,-0.0033,-0.0026,-0.0008,0.0019,0.0045,0.0089,0.013,0.0153,0.015,0.0209,0.0202,0.0203,0.0198,0.0213,0.0215,0.0217,0.0189,0.0189,0.0189,0,0,-0.0059,-0.0045,-0.0031,-0.0029,-0.0021,-0.0021,-0.0017,-0.0015,-0.0008,0.0017,0.0035,0.0067,0.0123,0.0149,0.0176,0.0213,0.0218,0.0229,0.023,0.0245,0.0247,0.0248,0.025,0.0252,0.023,0.023,0.023,0,-0.005,-0.0032,-0.0024,-0.0017,-0.0006,-0.0012,-0.0002,0.0005,0.0018,0.0033,0.0025,0.0098,0.0129,0.019,0.0196,0.0217,0.0221,0.0216,0.0246,0.0247,0.0249,0.0251,0.0253,0.023,0.023,0.023,0.023,0,-0.0016,-0.0013,0.0001,0.0005,0.0018,0.0027,0.0033,0.004,0.0046,0.0048,0.0093,0.0125,0.0164,0.0183,0.0203,0.0242,0.0238,0.0244,0.0234,0.0251,0.0252,0.0254,0.0231,0.0231,0.0231,0.0231,0,0,0.0011,0.002,0.0019,0.002,0.0028,0.004,0.0061,0.0078,0.0088,0.0098,0.0121,0.0178,0.0178,0.0207,0.0235,0.0247,0.0261,0.0249,0.025,0.0241,0.0284,0.027,0.0271,0.0271,0.0271,0.0272,0.0279,0,0.0025,0.004,0.0047,0.0058,0.0064,0.007,0.0087,0.0102,0.0111,0.0125,0.0158,0.0186,0.0196,0.0212,0.0229,0.0254,0.0267,0.0258,0.0278,0.0278,0.0256,0.0273,0.0274,0.028,0.0281,0.0281,0.0281,0,0.0043,0.0051,0.0068,0.0074,0.0081,0.009,0.0119,0.013,0.015,0.0155,0.0179,0.0192,0.0228,0.0224,0.0263,0.0256,0.027,0.028,0.0281,0.0268,0.0268,0.0266,0.0284,0.0272,0.0284,0.0284,0.0284,0,0.0052,0.0059,0.0078,0.0081,0.0092,0.011,0.0123,0.014,0.0154,0.017,0.0172,0.0207,0.0221,0.0245,0.0262,0.0264,0.0289,0.0297,0.0298,0.0296,0.0301,0.03,0.0302,0.0321,0.0321,0.0321,0.0321,0,0.0057,0.0062,0.008,0.0087,0.0111,0.0119,0.0142,0.0151,0.0164,0.0178,0.0187,0.0201,0.0225,0.0241,0.0261,0.0279,0.029,0.0297,0.03,0.0301,0.0299,0.0292,0.0273,0.0321,0.0321,0.0321,0.0321,0,0.0054,0.0059,0.0076,0.0101,0.0111,0.013,0.0154,0.0164,0.0166,0.0184,0.0189,0.0199,0.0215,0.0233,0.0263,0.0273,0.0284,0.03,0.029,0.0291,0.028,0.026,0.0255,0.0249,0.0303,0.0303,0.0303,0,0.0049,0.006,0.0096,0.011,0.0122,0.0147,0.016,0.0169,0.018,0.0186,0.02,0.0206,0.0218,0.0241,0.0258,0.0279,0.0278,0.029,0.0299,0.0276,0.0258,0.0249,0.0244,0.0305,0.0305,0.0305,0.0305,0,0.0052,0.0072,0.0097,0.0131,0.015,0.0167,0.0188,0.0199,0.0205,0.0211,0.022,0.0223,0.0229,0.0239,0.0248,0.0272,0.0269,0.0287,0.0277,0.0266,0.0245,0.0242,0.0292,0.0304,0.0304,0.0304,0.0304,0.0304,0.0066,0.0087,0.0129,0.0161,0.017,0.0186,0.0209,0.0226,0.0242,0.0261,0.0247,0.0268,0.0233,0.0245,0.0262,0.0267,0.0258,0.0272,0.0252,0.0247,0.0236,0.027,0.0277,0.0277,0.0277,0.0277,0.0277,0,0.0094,0.0123,0.0156,0.0187,0.0192,0.0197,0.0224,0.0244,0.0269,0.0298,0.0301,0.0303,0.0273,0.0264,0.0223,0.0223,0.0243,0.0226,0.0222,0.0221,0.0269,0.0264,0.0253,0.0253,0.0253,0.0253,0.0253,0.0253,0.0113,0.0152,0.0172,0.0199,0.0209,0.0223,0.0239,0.0266,0.03,0.0347,0.038,0.0386,0.0325,0.0239,0.0191,0.0189,0.017,0.0171,0.016,0.0197,0.0201,0.0204,0.0195,0.0171,0.0171,0.0133,0.0132,0.0132]},{"header":{"parameterUnit":"m.s-1","parameterCategory":2,"la1":30.2991,"la2":30.254,"lo1":-89.0895,"lo2":-89.0444,"dy":0.0017,"dx":0.0017,"nx":28,"ny":28,"refTime":"2023-07-23T09:00:00:Z","depth":"0","parameterNumber":3,"parameterNumberName":"V-component_of_CURRENTS"},"data":[0,0,0,0,0,0,0,0,0,0,0,0,0,0,0,0,0,0,0,0,0,0,0,0,0,0,0,0,0,0,0,0,0,0,0,0,0,0,0,0,0,0,0,0,0,0,0,0,0,0,0,0,0,0,0,0,0,0,-0.1382,-0.1382,0,-0.1411,-0.1411,-0.1411,-0.1419,-0.1419,-0.1418,-0.1418,-0.1457,-0.1458,-0.1459,0,0,0,0,0,0,0,0,0,0,0,0,0,-0.1373,-0.1373,-0.1382,-0.1382,-0.1382,-0.1411,-0.1411,-0.1412,-0.1419,-0.1419,-0.1418,-0.1418,-0.1456,-0.1458,-0.1459,0,0,0,0,0,0,0,0,0,0,0,0,0,-0.1387,-0.1373,-0.1381,-0.139,-0.1391,-0.1411,-0.1411,-0.1412,-0.1419,-0.1419,-0.1418,-0.1418,-0.1456,-0.1458,-0.1459,-0.1475,0,0,-0.1465,-0.1466,0,0,0,0,0,0,0,0,-0.1386,-0.1387,-0.1388,-0.1389,-0.139,-0.1411,-0.1422,-0.1433,-0.1419,-0.1408,-0.1418,-0.1418,-0.1443,-0.1446,-0.1451,-0.1477,-0.1479,-0.1465,-0.1466,-0.1467,-0.1467,0,0,0,0,0,0,0,-0.1385,-0.1386,-0.1393,-0.1388,-0.139,-0.1406,-0.1407,-0.1425,-0.1426,-0.1409,-0.1409,-0.1413,-0.1443,-0.1449,-0.1452,-0.1479,-0.1465,-0.1467,-0.1468,-0.1468,-0.1501,-0.15,0,0,0,0,0,0,-0.138,-0.1385,-0.1392,-0.1394,-0.1388,-0.1406,-0.1408,-0.1404,-0.1426,-0.1429,-0.1413,-0.1414,-0.1447,-0.145,-0.1454,-0.1461,-0.1467,-0.1468,-0.1469,-0.1501,-0.15,-0.15,0,0,0,0,0,0,-0.1379,-0.138,-0.1391,-0.1391,-0.1393,-0.1406,-0.1403,-0.1405,-0.1414,-0.1429,-0.1432,-0.142,-0.1446,-0.1451,-0.1462,-0.1463,-0.1469,-0.1471,-0.1501,-0.1501,-0.15,-0.1484,0,0,0,0,0,0,-0.1379,-0.1379,-0.1377,-0.139,-0.1393,-0.1398,-0.1403,-0.1406,-0.1417,-0.1417,-0.1436,-0.144,-0.1447,-0.146,-0.1464,-0.1466,-0.1472,-0.1501,-0.1501,-0.15,-0.1485,-0.1483,-0.1482,0,0,0,0,0,-0.1378,-0.1375,-0.1376,-0.1377,-0.1388,-0.1398,-0.1401,-0.141,-0.1417,-0.1418,-0.1428,-0.1439,-0.146,-0.1461,-0.1466,-0.1468,-0.1501,-0.1501,-0.1501,-0.1486,-0.1484,-0.1482,0,0,0,0,0,0,-0.1369,-0.1376,-0.1377,-0.1376,-0.1384,-0.14,-0.1407,-0.1413,-0.1424,-0.1424,-0.144,-0.1443,-0.145,-0.1463,-0.1463,-0.1475,-0.1482,-0.1482,-0.1469,-0.1467,-0.1465,-0.1464,-0.1474,0,0,0,0,0,-0.1366,-0.1366,-0.1374,-0.1375,-0.138,-0.1395,-0.1402,-0.1405,-0.1416,-0.1421,-0.1426,-0.1438,-0.1453,-0.1462,-0.1468,-0.1483,-0.1489,-0.1487,-0.1485,-0.1484,-0.1485,-0.1492,-0.1491,-0.1499,-0.1499,-0.1499,0,0,-0.1365,-0.1368,-0.1369,-0.1373,-0.1385,-0.1383,-0.1399,-0.1406,-0.1407,-0.1424,-0.1423,-0.1431,-0.1453,-0.1459,-0.1464,-0.1472,-0.1482,-0.1483,-0.1482,-0.1484,-0.1491,-0.149,-0.149,-0.1498,-0.1499,-0.1499,0,0,-0.1363,-0.1365,-0.1364,-0.1365,-0.1374,-0.138,-0.1383,-0.1389,-0.1397,-0.1398,-0.1409,-0.1417,-0.1433,-0.1447,-0.146,-0.1458,-0.1469,-0.146,-0.146,-0.1466,-0.1465,-0.1465,-0.1462,-0.1462,-0.1466,-0.1466,-0.1466,0,-0.1359,-0.1356,-0.1367,-0.1361,-0.1364,-0.1378,-0.1376,-0.1384,-0.1388,-0.1401,-0.1392,-0.1413,-0.1428,-0.1453,-0.1449,-0.1456,-0.1457,-0.1466,-0.1464,-0.1464,-0.1464,-0.1461,-0.1461,-0.1465,-0.1465,-0.1465,-0.1465,0,-0.1358,-0.1347,-0.1349,-0.1344,-0.1348,-0.1349,-0.1359,-0.1364,-0.1371,-0.1377,-0.139,-0.14,-0.1416,-0.142,-0.1437,-0.1449,-0.1448,-0.1456,-0.1468,-0.1462,-0.1459,-0.1459,-0.1464,-0.1464,-0.1464,-0.1465,0,0,-0.1358,-0.135,-0.1347,-0.1343,-0.1339,-0.1345,-0.1352,-0.1369,-0.1381,-0.1375,-0.1389,-0.1405,-0.1407,-0.1423,-0.1438,-0.1445,-0.1443,-0.1451,-0.1452,-0.1448,-0.1449,-0.1461,-0.1463,-0.145,-0.145,-0.145,-0.1445,0,-0.1352,-0.134,-0.1339,-0.1328,-0.1324,-0.1336,-0.1342,-0.1356,-0.1368,-0.1377,-0.1398,-0.1404,-0.1412,-0.1416,-0.1426,-0.1439,-0.1444,-0.1444,-0.1456,-0.1457,-0.1469,-0.1464,-0.1482,-0.148,-0.1445,-0.1445,-0.1445,0,-0.1338,-0.1337,-0.1326,-0.1325,-0.1327,-0.1323,-0.1347,-0.1353,-0.1375,-0.1382,-0.1393,-0.14,-0.1416,-0.1415,-0.1433,-0.1432,-0.144,-0.1445,-0.1445,-0.1464,-0.147,-0.1483,-0.1482,-0.1343,-0.1445,-0.1445,-0.1445,0,-0.1327,-0.132,-0.1317,-0.1313,-0.1316,-0.1327,-0.1337,-0.1355,-0.1367,-0.1382,-0.1381,-0.1398,-0.1401,-0.1413,-0.1424,-0.1429,-0.1435,-0.1444,-0.1461,-0.1461,-0.1484,-0.1487,-0.1353,-0.1453,-0.1453,-0.1453,-0.1453,0,-0.1303,-0.1292,-0.1314,-0.1306,-0.1317,-0.1322,-0.1335,-0.1347,-0.136,-0.1367,-0.138,-0.1385,-0.14,-0.1407,-0.142,-0.1438,-0.1431,-0.1459,-0.1463,-0.1478,-0.148,-0.1367,-0.1236,-0.1452,-0.1452,-0.1453,-0.1453,0,-0.1259,-0.1269,-0.1267,-0.1292,-0.1302,-0.1308,-0.1329,-0.1337,-0.1347,-0.1355,-0.1354,-0.1373,-0.1386,-0.1396,-0.1413,-0.1431,-0.1317,-0.1453,-0.1464,-0.147,-0.137,-0.1238,-0.0986,-0.079,-0.1476,-0.1476,-0.1477,0,-0.1222,-0.1219,-0.1258,-0.1266,-0.1272,-0.1291,-0.1302,-0.1325,-0.1335,-0.135,-0.1353,-0.1364,-0.1382,-0.1409,-0.1456,-0.148,-0.1283,-0.1486,-0.1505,-0.136,-0.1215,-0.1038,-0.0875,-0.1523,-0.1524,-0.1524,-0.1525,0,-0.1163,-0.1186,-0.1199,-0.1224,-0.124,-0.1261,-0.1283,-0.1294,-0.1318,-0.133,-0.1349,-0.1363,-0.1417,-0.1461,-0.1489,-0.1509,-0.1269,-0.1499,-0.1346,-0.1232,-0.103,-0.0847,-0.1515,-0.1529,-0.1529,-0.1528,-0.1528,-0.1528,-0.1119,-0.1126,-0.1157,-0.1175,-0.1196,-0.1217,-0.1227,-0.1262,-0.1281,-0.1299,-0.1341,-0.1377,-0.1437,-0.1508,-0.1489,-0.1435,-0.1277,-0.139,-0.124,-0.1075,-0.0872,-0.1542,-0.1563,-0.1563,-0.1563,-0.1562,-0.1562,0,-0.1069,-0.1086,-0.1102,-0.1129,-0.1139,-0.1167,-0.12,-0.1208,-0.1231,-0.1291,-0.1323,-0.1423,-0.1408,-0.1406,-0.1373,-0.1218,-0.1045,-0.1072,-0.0829,-0.0672,-0.1317,-0.1312,-0.1281,-0.1281,-0.1281,-0.1281,-0.1282,-0.1282,-0.1041,-0.1043,-0.1062,-0.1064,-0.1083,-0.1089,-0.1103,-0.1131,-0.1178,-0.1248,-0.1334,-0.1408,-0.1388,-0.1208,-0.0963,-0.0885,-0.0463,-0.0461,-0.0191,-0.0702,-0.0721,-0.0739,-0.0707,-0.0549,-0.0548,0.0439,0.0447,0.0453]}],[{"header":{"parameterUnit":"m.s-1","parameterCategory":2,"la1":30.2991,"la2":30.254,"lo1":-89.0895,"lo2":-89.0444,"dy":0.0017,"dx":0.0017,"nx":28,"ny":28,"refTime":"2023-07-23T09:00:00:Z","depth":"2","parameterNumber":2,"parameterNumberName":"U-component_of_CURRENTS"},"data":[0,0,0,0,0,0,0,0,0,0,0,0,0,0,0,0,0,0,0,0,0,0,0,0,0,0,0,0,0,0,0,0,0,0,0,0,0,0,0,0,0,0,0,0,0,0,0,0,0,0,0,0,0,0,0,0,0,0,-0.2112,-0.2114,0,-0.2239,-0.2241,-0.2242,-0.2234,-0.2232,-0.223,-0.2228,-0.2263,-0.2266,-0.2269,0,0,0,0,0,0,0,0,0,0,0,0,0,-0.2019,-0.2019,-0.2112,-0.2114,-0.2115,-0.2239,-0.2241,-0.2243,-0.2234,-0.2232,-0.2229,-0.2227,-0.2263,-0.2266,-0.2269,0,0,0,0,0,0,0,0,0,0,0,0,0,-0.2094,-0.202,-0.2112,-0.2126,-0.2128,-0.2239,-0.2241,-0.2243,-0.2235,-0.2232,-0.2229,-0.2226,-0.2262,-0.2265,-0.227,-0.2352,0,0,-0.2282,-0.2284,0,0,0,0,0,0,0,0,-0.2089,-0.2097,-0.2122,-0.2125,-0.2128,-0.2217,-0.2221,-0.2275,-0.2235,-0.2195,-0.2228,-0.2225,-0.2241,-0.2247,-0.2279,-0.2354,-0.2356,-0.2282,-0.2285,-0.2287,-0.2288,0,0,0,0,0,0,0,-0.2084,-0.2093,-0.2163,-0.2124,-0.2127,-0.2179,-0.2185,-0.2232,-0.2231,-0.2198,-0.2198,-0.2212,-0.2242,-0.2276,-0.228,-0.2356,-0.2282,-0.2286,-0.2288,-0.229,-0.2413,-0.2414,0,0,0,0,0,0,-0.2063,-0.2087,-0.2159,-0.2167,-0.2101,-0.2182,-0.2189,-0.2192,-0.2233,-0.2237,-0.2214,-0.2211,-0.227,-0.2275,-0.2281,-0.2272,-0.2287,-0.229,-0.2293,-0.2412,-0.2413,-0.2414,0,0,0,0,0,0,-0.206,-0.2067,-0.2154,-0.213,-0.2144,-0.2185,-0.219,-0.2196,-0.2187,-0.2246,-0.2248,-0.2193,-0.2268,-0.2275,-0.2307,-0.2276,-0.2292,-0.2296,-0.2411,-0.2412,-0.2413,-0.2323,0,0,0,0,0,0,-0.2056,-0.2065,-0.2042,-0.2128,-0.2145,-0.2199,-0.2193,-0.22,-0.2203,-0.2198,-0.223,-0.2233,-0.2266,-0.2301,-0.2311,-0.2282,-0.2299,-0.241,-0.2412,-0.2413,-0.2325,-0.2321,-0.2317,0,0,0,0,0,-0.2053,-0.2045,-0.204,-0.2048,-0.2117,-0.22,-0.2214,-0.2235,-0.2204,-0.2212,-0.2233,-0.223,-0.2316,-0.2306,-0.2317,-0.2288,-0.2409,-0.2411,-0.2413,-0.2326,-0.2322,-0.2317,0,0,0,0,0,0,-0.1993,-0.2046,-0.2042,-0.2047,-0.2105,-0.2197,-0.2197,-0.2215,-0.2242,-0.2211,-0.2254,-0.2261,-0.2276,-0.231,-0.2297,-0.2333,-0.2358,-0.2362,-0.2288,-0.2284,-0.228,-0.2258,-0.2303,0,0,0,0,0,-0.1969,-0.1962,-0.2042,-0.2036,-0.2059,-0.2117,-0.2141,-0.216,-0.2207,-0.2212,-0.2236,-0.2263,-0.2306,-0.2312,-0.2359,-0.2384,-0.24,-0.2373,-0.237,-0.2366,-0.236,-0.2388,-0.2385,-0.242,-0.242,-0.242,0,0,-0.1939,-0.1967,-0.196,-0.2021,-0.2055,-0.2103,-0.2122,-0.2149,-0.2173,-0.2213,-0.2222,-0.2253,-0.2315,-0.2342,-0.2349,-0.2354,-0.236,-0.2368,-0.2364,-0.236,-0.239,-0.2386,-0.2382,-0.2421,-0.2421,-0.2421,0,0,-0.191,-0.1904,-0.1902,-0.1951,-0.2001,-0.2055,-0.2052,-0.2123,-0.2127,-0.2162,-0.2192,-0.221,-0.2266,-0.2309,-0.2339,-0.2349,-0.2345,-0.2346,-0.2297,-0.2324,-0.2321,-0.2318,-0.2299,-0.2296,-0.2335,-0.2335,-0.2335,0,-0.187,-0.1884,-0.1918,-0.1949,-0.198,-0.2026,-0.2056,-0.2092,-0.2157,-0.2171,-0.2142,-0.2227,-0.2255,-0.2315,-0.23,-0.2335,-0.2332,-0.23,-0.2315,-0.2313,-0.2311,-0.2294,-0.2291,-0.2331,-0.2331,-0.2332,-0.2332,0,-0.1866,-0.1872,-0.1878,-0.1924,-0.1967,-0.1995,-0.2063,-0.2082,-0.2076,-0.2116,-0.2141,-0.2184,-0.2231,-0.2235,-0.2259,-0.2272,-0.2265,-0.2308,-0.2313,-0.2301,-0.2284,-0.2283,-0.2325,-0.2326,-0.2327,-0.2328,0,0,-0.1786,-0.1862,-0.1854,-0.1887,-0.1951,-0.2003,-0.2028,-0.2098,-0.2117,-0.2126,-0.2147,-0.2183,-0.2177,-0.2211,-0.2238,-0.224,-0.2201,-0.2242,-0.2246,-0.2199,-0.2213,-0.1986,-0.1962,-0.2234,-0.2234,-0.2234,-0.2191,0,-0.1768,-0.1826,-0.1858,-0.1908,-0.1954,-0.2004,-0.2042,-0.2097,-0.212,-0.2152,-0.2166,-0.219,-0.2179,-0.2172,-0.2175,-0.2216,-0.2198,-0.2207,-0.2254,-0.2254,-0.2034,-0.1954,-0.1842,-0.1774,-0.2189,-0.2189,-0.2189,0,-0.1743,-0.1798,-0.1834,-0.1933,-0.1951,-0.1968,-0.2039,-0.208,-0.2137,-0.2146,-0.2154,-0.2175,-0.2177,-0.2163,-0.218,-0.2177,-0.2171,-0.2186,-0.2186,-0.2005,-0.2023,-0.1864,-0.1756,-0.2187,-0.2187,-0.2187,-0.2187,0,-0.1689,-0.1778,-0.1803,-0.1832,-0.1942,-0.1939,-0.1981,-0.2048,-0.2083,-0.2114,-0.2123,-0.2153,-0.2138,-0.2153,-0.2129,-0.2158,-0.2129,-0.2199,-0.1993,-0.1978,-0.1906,-0.1881,-0.2201,-0.2201,-0.2201,-0.2201,-0.2201,0,-0.1665,-0.1687,-0.1769,-0.1785,-0.1823,-0.1894,-0.1913,-0.1966,-0.2016,-0.2032,-0.2084,-0.2077,-0.2128,-0.2116,-0.2117,-0.1994,-0.2116,-0.1943,-0.1938,-0.1865,-0.1838,-0.2238,-0.2243,-0.2199,-0.22,-0.22,-0.22,0,-0.1585,-0.1637,-0.1682,-0.1769,-0.1785,-0.1794,-0.1856,-0.188,-0.1935,-0.1946,-0.194,-0.2007,-0.1953,-0.198,-0.1992,-0.1937,-0.189,-0.1828,-0.169,-0.1664,-0.1735,-0.1737,-0.1606,-0.1598,-0.159,-0.1584,-0.1579,0,-0.1551,-0.1555,-0.1633,-0.1634,-0.1642,-0.1676,-0.1688,-0.1792,-0.1816,-0.1877,-0.1867,-0.1841,-0.1765,-0.1672,-0.159,-0.1504,-0.1672,-0.1354,-0.138,-0.1657,-0.1669,-0.1682,-0.1693,-0.127,-0.1262,-0.1256,-0.1252,0,-0.1475,-0.147,-0.1504,-0.1512,-0.1507,-0.1556,-0.1577,-0.1594,-0.1684,-0.1704,-0.1668,-0.1602,-0.1474,-0.1318,-0.1181,-0.1123,-0.1351,-0.1219,-0.1581,-0.1394,-0.1324,-0.134,-0.1366,-0.1199,-0.1204,-0.1208,-0.1211,-0.1213,-0.1376,-0.137,-0.1377,-0.1378,-0.1385,-0.1375,-0.137,-0.1408,-0.1417,-0.1417,-0.1442,-0.1356,-0.1277,-0.1004,-0.0881,-0.0792,-0.0886,-0.0907,-0.0935,-0.0967,-0.0891,-0.0807,-0.0571,-0.0572,-0.0574,-0.0575,-0.0576,0,-0.1292,-0.1265,-0.1245,-0.1247,-0.1221,-0.1254,-0.1264,-0.1272,-0.1225,-0.1214,-0.117,-0.1014,-0.0864,-0.0828,-0.059,-0.045,-0.0528,-0.0443,-0.0631,-0.0677,-0.072,-0.0645,-0.0253,-0.0253,-0.0253,-0.0252,0,0,-0.1234,-0.1189,-0.1181,-0.1086,-0.1062,-0.1007,-0.0983,-0.1012,-0.1024,-0.0905,-0.0877,-0.0934,-0.0862,-0.0677,-0.0503,-0.0379,-0.0546,-0.0319,-0.0567,-0.0841,-0.0886,-0.0949,-0.0874,0,0,0,0,0]},{"header":{"parameterUnit":"m.s-1","parameterCategory":2,"la1":30.2991,"la2":30.254,"lo1":-89.0895,"lo2":-89.0444,"dy":0.0017,"dx":0.0017,"nx":28,"ny":28,"refTime":"2023-07-23T09:00:00:Z","depth":"2","parameterNumber":3,"parameterNumberName":"V-component_of_CURRENTS"},"data":[0,0,0,0,0,0,0,0,0,0,0,0,0,0,0,0,0,0,0,0,0,0,0,0,0,0,0,0,0,0,0,0,0,0,0,0,0,0,0,0,0,0,0,0,0,0,0,0,0,0,0,0,0,0,0,0,0,0,0.041,0.041,0,0.0463,0.0464,0.0465,0.0504,0.0504,0.0504,0.0503,0.0587,0.0589,0.0592,0,0,0,0,0,0,0,0,0,0,0,0,0,0.0464,0.0462,0.041,0.041,0.041,0.0463,0.0464,0.0466,0.0504,0.0504,0.0504,0.0503,0.0586,0.0589,0.0592,0,0,0,0,0,0,0,0,0,0,0,0,0,0.0476,0.0462,0.041,0.0432,0.0434,0.0463,0.0464,0.0466,0.0504,0.0504,0.0503,0.0503,0.0585,0.0589,0.0592,0.0619,0,0,0.0603,0.0605,0,0,0,0,0,0,0,0,0.0475,0.0474,0.0429,0.043,0.0433,0.0472,0.0514,0.0517,0.0504,0.0483,0.0503,0.0503,0.0548,0.0555,0.0572,0.0623,0.0627,0.0603,0.0606,0.0607,0.0608,0,0,0,0,0,0,0,0.0474,0.0473,0.0437,0.0429,0.0431,0.0481,0.0482,0.0515,0.0521,0.0485,0.0486,0.0484,0.055,0.0569,0.0575,0.0628,0.0603,0.0607,0.0609,0.061,0.0668,0.0667,0,0,0,0,0,0,0.045,0.0471,0.0435,0.0438,0.0448,0.0479,0.048,0.0464,0.052,0.0526,0.0484,0.0485,0.0563,0.057,0.0578,0.0562,0.0607,0.061,0.0613,0.0668,0.0667,0.0667,0,0,0,0,0,0,0.0451,0.0446,0.0432,0.0453,0.0454,0.0477,0.0459,0.0465,0.046,0.0518,0.0526,0.0469,0.0563,0.0573,0.0592,0.0567,0.0612,0.0615,0.0669,0.0668,0.0667,0.0563,0,0,0,0,0,0,0.0452,0.0445,0.0423,0.045,0.0451,0.0433,0.0459,0.0466,0.0457,0.0459,0.0508,0.0517,0.0564,0.0587,0.0596,0.0573,0.0618,0.067,0.0668,0.0667,0.0567,0.0558,0.0551,0,0,0,0,0,0.0453,0.0417,0.0421,0.0416,0.042,0.0432,0.0437,0.0458,0.0456,0.0453,0.0485,0.0514,0.0586,0.0589,0.06,0.0577,0.067,0.0669,0.0667,0.057,0.056,0.0551,0,0,0,0,0,0,0.0435,0.0418,0.0423,0.0385,0.04,0.0436,0.0427,0.0438,0.0461,0.0456,0.051,0.0522,0.0527,0.0569,0.0571,0.0592,0.0632,0.0632,0.0554,0.0545,0.0537,0.0537,0.0621,0,0,0,0,0,0.0417,0.0382,0.0393,0.0366,0.0364,0.039,0.0393,0.0406,0.043,0.0438,0.0469,0.0505,0.0535,0.0551,0.0586,0.0599,0.0644,0.0592,0.0584,0.0577,0.0585,0.0639,0.0637,0.0662,0.0662,0.0662,0,0,0.0404,0.039,0.0372,0.0359,0.0371,0.0363,0.0392,0.0385,0.0377,0.0444,0.0438,0.0474,0.0531,0.0545,0.0551,0.0574,0.0586,0.0575,0.0568,0.0581,0.0638,0.0635,0.0633,0.0661,0.0661,0.0662,0,0,0.0374,0.0346,0.0316,0.0315,0.0314,0.0327,0.0313,0.0331,0.0336,0.0342,0.0382,0.0409,0.0448,0.0492,0.0518,0.049,0.0538,0.0485,0.045,0.0501,0.05,0.0499,0.0521,0.0524,0.0486,0.0486,0.0486,0,0.0362,0.0321,0.0315,0.0293,0.0286,0.03,0.0283,0.0288,0.031,0.0328,0.0324,0.0398,0.043,0.0471,0.0451,0.0472,0.0497,0.0477,0.049,0.0491,0.0492,0.0516,0.052,0.0481,0.0481,0.0482,0.0482,0,0.0324,0.0285,0.0267,0.0237,0.0234,0.0215,0.022,0.0217,0.0218,0.0245,0.0273,0.0322,0.0377,0.0375,0.0399,0.042,0.0431,0.0467,0.0511,0.0483,0.0509,0.0515,0.0473,0.0475,0.0477,0.0478,0,0,0.0308,0.0249,0.0242,0.0221,0.0197,0.0195,0.0175,0.0188,0.0196,0.0208,0.024,0.0265,0.03,0.0332,0.0364,0.0397,0.04,0.0418,0.0423,0.0433,0.0486,0.0447,0.045,0.0432,0.0433,0.0434,0.0489,0,0.0283,0.0223,0.0208,0.0163,0.0133,0.0138,0.013,0.0146,0.0166,0.0198,0.0247,0.028,0.0279,0.0299,0.0328,0.0399,0.0416,0.0381,0.052,0.0523,0.0487,0.0456,0.0608,0.0666,0.0496,0.0497,0.0497,0,0.0258,0.0215,0.0163,0.0125,0.0118,0.0102,0.0111,0.0104,0.0155,0.0177,0.0222,0.0264,0.0307,0.031,0.04,0.0372,0.0408,0.0454,0.0459,0.047,0.0496,0.0675,0.0685,0.0508,0.0507,0.0507,0.0506,0,0.0253,0.019,0.0143,0.0124,0.0087,0.0083,0.0074,0.0109,0.0112,0.0167,0.0191,0.026,0.0295,0.0357,0.042,0.0411,0.0526,0.0542,0.054,0.0537,0.072,0.0731,0.0598,0.0598,0.0598,0.0598,0.0598,0,0.0224,0.0194,0.0134,0.0105,0.0072,0.0065,0.006,0.0069,0.0101,0.0116,0.0173,0.0207,0.0304,0.0377,0.0431,0.0496,0.0536,0.0527,0.0552,0.0682,0.0688,0.0606,0.0606,0.06,0.0599,0.0599,0.0599,0,0.0233,0.0185,0.013,0.0077,0.0061,0.0041,0.0018,0.002,0.0052,0.0074,0.0083,0.0173,0.0249,0.0342,0.0464,0.0503,0.0583,0.0594,0.0713,0.0748,0.0553,0.0548,0.0598,0.0597,0.0596,0.0595,0.0595,0,0.0234,0.02,0.0112,0.007,0.0042,0.0008,-0.0015,-0.0011,-0.0012,0.0051,0.006,0.0142,0.0221,0.038,0.049,0.0592,0.0556,0.0745,0.0746,0.0536,0.0555,0.0551,0.0546,0.0952,0.0954,0.0956,0.0958,0,0.0245,0.021,0.0159,0.0063,0.0011,-0.0042,-0.0074,-0.0084,-0.007,-0.0007,0.0075,0.0156,0.0295,0.0513,0.0616,0.0676,0.074,0.078,0.0597,0.0891,0.0864,0.0884,0.087,0.0976,0.0974,0.0972,0.0971,0.0971,0.0266,0.0227,0.0146,0.0064,-0.0008,-0.0079,-0.0092,-0.0094,-0.006,0.0036,0.0097,0.032,0.0443,0.0692,0.0725,0.0794,0.0783,0.0871,0.0869,0.0864,0.0858,0.0827,0.093,0.0928,0.0926,0.0925,0.0924,0,0.0286,0.0232,0.0153,0.0036,-0.004,-0.007,-0.0116,-0.0085,-0.0009,0.0086,0.0217,0.045,0.0726,0.0818,0.1003,0.1009,0.1009,0.0968,0.1055,0.1044,0.1033,0.1034,0.1154,0.1152,0.1151,0.115,0,0,0.029,0.022,0.0166,0.0039,-0.003,-0.0073,-0.0081,-0.0021,0.0066,0.0171,0.038,0.0607,0.0821,0.0946,0.1006,0.1114,0.1005,0.1068,0.092,0.1009,0.0992,0.106,0.106,0,0,0,0,0]}],[{"header":{"parameterUnit":"m.s-1","parameterCategory":2,"la1":30.2991,"la2":30.254,"lo1":-89.0895,"lo2":-89.0444,"dy":0.0017,"dx":0.0017,"nx":28,"ny":28,"refTime":"2023-07-23T09:00:00:Z","depth":"4","parameterNumber":2,"parameterNumberName":"U-component_of_CURRENTS"},"data":[0,0,0,0,0,0,0,0,0,0,0,0,0,0,0,0,0,0,0,0,0,0,0,0,0,0,0,0,0,0,0,0,0,0,0,0,0,0,0,0,0,0,0,0,0,0,0,0,0,0,0,0,0,0,0,0,0,0,-0.0926,-0.0926,0,-0.0967,-0.0967,-0.0968,-0.0989,-0.099,-0.099,-0.099,-0.1022,-0.1022,-0.1023,0,0,0,0,0,0,0,0,0,0,0,0,0,-0.0851,-0.0852,-0.0925,-0.0926,-0.0927,-0.0967,-0.0967,-0.0968,-0.0989,-0.099,-0.099,-0.099,-0.1022,-0.1022,-0.1023,0,0,0,0,0,0,0,0,0,0,0,0,0,-0.0886,-0.0853,-0.0925,-0.0943,-0.0945,-0.0967,-0.0967,-0.0968,-0.0989,-0.099,-0.099,-0.099,-0.1021,-0.1022,-0.1023,-0.1025,0,0,-0.1027,-0.1027,0,0,0,0,0,0,0,0,-0.0884,-0.0888,-0.094,-0.0942,-0.0945,-0.0974,-0.0953,-0.0987,-0.0989,-0.0971,-0.099,-0.099,-0.1006,-0.1008,-0.1014,-0.1027,-0.1028,-0.1027,-0.1027,-0.1028,-0.1028,0,0,0,0,0,0,0,-0.0881,-0.0887,-0.0941,-0.0941,-0.0944,-0.0944,-0.095,-0.0959,-0.0986,-0.0973,-0.0975,-0.0981,-0.1007,-0.1013,-0.1015,-0.1029,-0.1027,-0.1028,-0.1028,-0.1029,-0.1227,-0.1232,0,0,0,0,0,0,-0.0879,-0.0884,-0.0939,-0.0942,-0.0915,-0.0946,-0.0952,-0.0964,-0.0986,-0.099,-0.0981,-0.0982,-0.1011,-0.1013,-0.1016,-0.1164,-0.1028,-0.1029,-0.1029,-0.1223,-0.1228,-0.1233,0,0,0,0,0,0,-0.0878,-0.0884,-0.0938,-0.0915,-0.0922,-0.0947,-0.096,-0.0964,-0.0966,-0.0992,-0.0996,-0.0979,-0.1011,-0.1014,-0.1048,-0.116,-0.1029,-0.103,-0.1217,-0.1224,-0.1231,-0.1368,0,0,0,0,0,0,-0.0876,-0.0883,-0.0892,-0.0915,-0.0923,-0.0941,-0.096,-0.0965,-0.0971,-0.0972,-0.0991,-0.0995,-0.1011,-0.1046,-0.1049,-0.1159,-0.1031,-0.1211,-0.122,-0.1228,-0.1357,-0.1378,-0.1397,0,0,0,0,0,-0.0873,-0.0873,-0.0892,-0.0899,-0.0934,-0.0941,-0.0944,-0.0962,-0.097,-0.0965,-0.1004,-0.0994,-0.1106,-0.1049,-0.1051,-0.1165,-0.1207,-0.1218,-0.1228,-0.1348,-0.1374,-0.1396,0,0,0,0,0,0,-0.0847,-0.0877,-0.0897,-0.0909,-0.0923,-0.0945,-0.095,-0.0956,-0.098,-0.0994,-0.1011,-0.1018,-0.1108,-0.1103,-0.104,-0.1254,-0.1172,-0.1183,-0.1264,-0.1288,-0.1307,-0.1287,-0.1032,0,0,0,0,0,-0.0847,-0.0861,-0.0883,-0.0899,-0.0905,-0.0927,-0.0933,-0.0947,-0.0971,-0.0981,-0.1027,-0.1087,-0.1155,-0.1185,-0.1234,-0.131,-0.1258,-0.1402,-0.1421,-0.1438,-0.1428,-0.1472,-0.1493,-0.1267,-0.1267,-0.1267,0,0,-0.0856,-0.0865,-0.0882,-0.0895,-0.0914,-0.094,-0.0931,-0.0944,-0.098,-0.0982,-0.1069,-0.1138,-0.1186,-0.1306,-0.1349,-0.1312,-0.1467,-0.1451,-0.1464,-0.1445,-0.1485,-0.1506,-0.1525,-0.1275,-0.1273,-0.1272,0,0,-0.0858,-0.0876,-0.0884,-0.09,-0.0919,-0.0941,-0.0941,-0.0988,-0.1014,-0.1111,-0.1143,-0.1236,-0.1368,-0.141,-0.1451,-0.1587,-0.1563,-0.1673,-0.1761,-0.1807,-0.1824,-0.1839,-0.1748,-0.1754,-0.1692,-0.1693,-0.1693,0,-0.0867,-0.0873,-0.0887,-0.0898,-0.091,-0.0943,-0.0954,-0.0999,-0.1066,-0.111,-0.1165,-0.1397,-0.1412,-0.1533,-0.1624,-0.1626,-0.1633,-0.1663,-0.1828,-0.1842,-0.1854,-0.1759,-0.1763,-0.17,-0.17,-0.1699,-0.1698,0,-0.0865,-0.0887,-0.0891,-0.093,-0.0946,-0.0957,-0.1014,-0.1051,-0.1138,-0.1239,-0.1409,-0.1493,-0.1634,-0.1696,-0.1716,-0.1856,-0.182,-0.1835,-0.1754,-0.1885,-0.1775,-0.1777,-0.1712,-0.1709,-0.1707,-0.1705,0,0,-0.0845,-0.088,-0.0886,-0.0885,-0.0951,-0.0945,-0.1017,-0.1084,-0.114,-0.1342,-0.1456,-0.1654,-0.1775,-0.1825,-0.1886,-0.1948,-0.202,-0.1977,-0.1976,-0.1859,-0.2074,-0.1802,-0.1775,-0.2125,-0.2128,-0.213,-0.1939,0,-0.0835,-0.0842,-0.0866,-0.089,-0.09,-0.0936,-0.1024,-0.111,-0.1218,-0.1359,-0.1526,-0.1729,-0.1808,-0.1939,-0.2012,-0.203,-0.2047,-0.2064,-0.1987,-0.198,-0.1704,-0.1777,-0.2139,-0.194,-0.194,-0.194,-0.194,0,-0.0819,-0.0821,-0.0839,-0.0863,-0.0871,-0.0929,-0.0986,-0.1071,-0.1274,-0.1393,-0.162,-0.179,-0.1961,-0.2017,-0.2103,-0.215,-0.2127,-0.2118,-0.2111,-0.1807,-0.1715,-0.1799,-0.1943,-0.1942,-0.1942,-0.1942,-0.1942,0,-0.0768,-0.0781,-0.0779,-0.0794,-0.0872,-0.0892,-0.0969,-0.1134,-0.1213,-0.147,-0.1597,-0.1835,-0.1972,-0.2059,-0.2058,-0.2151,-0.2056,-0.2147,-0.1839,-0.1813,-0.205,-0.2037,-0.2161,-0.2162,-0.2162,-0.2163,-0.2163,0,-0.0728,-0.072,-0.0769,-0.0777,-0.0811,-0.0906,-0.0976,-0.1089,-0.1291,-0.1375,-0.1682,-0.1711,-0.2024,-0.2016,-0.203,-0.1879,-0.2023,-0.1826,-0.1768,-0.2104,-0.2101,-0.2045,-0.2035,-0.2155,-0.2157,-0.2158,-0.216,0,-0.0685,-0.0717,-0.0712,-0.0775,-0.0803,-0.0862,-0.0985,-0.1028,-0.1277,-0.1363,-0.1494,-0.1686,-0.1661,-0.1777,-0.1792,-0.1775,-0.1685,-0.1567,-0.1786,-0.1746,-0.1424,-0.1424,-0.1291,-0.128,-0.1271,-0.1263,-0.1257,0,-0.0662,-0.0668,-0.0701,-0.069,-0.0724,-0.0798,-0.0848,-0.1053,-0.1081,-0.1221,-0.1234,-0.132,-0.1383,-0.1185,-0.1299,-0.1269,-0.1268,-0.1253,-0.1503,-0.1389,-0.1346,-0.136,-0.1372,-0.1242,-0.124,-0.1238,-0.1235,0,-0.0617,-0.0644,-0.0633,-0.064,-0.0657,-0.0637,-0.0714,-0.0736,-0.0899,-0.107,-0.1,-0.1034,-0.0916,-0.0958,-0.0928,-0.0901,-0.1331,-0.1161,-0.1186,-0.1421,-0.1329,-0.1299,-0.1321,-0.1204,-0.1208,-0.1211,-0.1213,0,-0.0588,-0.0572,-0.0574,-0.0563,-0.0547,-0.05,-0.0536,-0.0524,-0.0621,-0.081,-0.0657,-0.0697,-0.077,-0.0732,-0.0636,-0.0664,-0.0747,-0.0865,-0.0908,-0.0944,-0.0932,-0.0771,-0.0402,0,0,0,0,0,-0.0548,-0.0513,-0.0478,-0.045,-0.0407,-0.0411,-0.0435,-0.047,-0.0564,-0.0492,-0.0633,-0.0501,-0.0469,-0.0447,-0.0421,-0.0477,-0.0742,-0.0446,-0.0899,-0.1029,-0.1066,-0.1093,0,0,0,0,0,0,-0.0514,-0.0489,-0.0466,-0.0358,-0.029,-0.0258,-0.026,-0.0312,-0.0297,-0.039,-0.0358,-0.0468,-0.0423,-0.0468,-0.0403,-0.041,-0.069,-0.0476,-0.0475,-0.1009,-0.1042,-0.1071,-0.1112,0,0,0,0,0]},{"header":{"parameterUnit":"m.s-1","parameterCategory":2,"la1":30.2991,"la2":30.254,"lo1":-89.0895,"lo2":-89.0444,"dy":0.0017,"dx":0.0017,"nx":28,"ny":28,"refTime":"2023-07-23T09:00:00:Z","depth":"4","parameterNumber":3,"parameterNumberName":"V-component_of_CURRENTS"},"data":[0,0,0,0,0,0,0,0,0,0,0,0,0,0,0,0,0,0,0,0,0,0,0,0,0,0,0,0,0,0,0,0,0,0,0,0,0,0,0,0,0,0,0,0,0,0,0,0,0,0,0,0,0,0,0,0,0,0,-0.0088,-0.0088,0,-0.0085,-0.0085,-0.0085,-0.0035,-0.0034,-0.0033,-0.0032,-0.0027,-0.0028,-0.0029,0,0,0,0,0,0,0,0,0,0,0,0,0,-0.0084,-0.0084,-0.0088,-0.0088,-0.0088,-0.0085,-0.0085,-0.0085,-0.0035,-0.0034,-0.0033,-0.0031,-0.0027,-0.0028,-0.0029,0,0,0,0,0,0,0,0,0,0,0,0,0,-0.0083,-0.0084,-0.0088,-0.0064,-0.0061,-0.0085,-0.0085,-0.0085,-0.0036,-0.0034,-0.0032,-0.0031,-0.0026,-0.0028,-0.0029,-0.0074,0,0,-0.0033,-0.0034,0,0,0,0,0,0,0,0,-0.0083,-0.0083,-0.0067,-0.0065,-0.0063,-0.0059,-0.0082,-0.0081,-0.0036,-0.0045,-0.0032,-0.003,-0.0039,-0.004,-0.0042,-0.0073,-0.0073,-0.0034,-0.0034,-0.0035,-0.0036,0,0,0,0,0,0,0,-0.0083,-0.0083,-0.0086,-0.0067,-0.0065,-0.0064,-0.0062,-0.0081,-0.0051,-0.0044,-0.004,-0.0042,-0.0038,-0.0041,-0.0041,-0.0073,-0.0034,-0.0035,-0.0036,-0.0036,-0.0118,-0.0119,0,0,0,0,0,0,-0.0085,-0.0083,-0.0086,-0.0086,-0.007,-0.0066,-0.0063,-0.0062,-0.0051,-0.0048,-0.0044,-0.004,-0.0039,-0.004,-0.0041,-0.0077,-0.0035,-0.0036,-0.0037,-0.0116,-0.0118,-0.0119,0,0,0,0,0,0,-0.0085,-0.0086,-0.0086,-0.0085,-0.0085,-0.0068,-0.0067,-0.0063,-0.0065,-0.0051,-0.0047,-0.005,-0.0038,-0.0039,-0.0078,-0.0077,-0.0037,-0.0038,-0.0115,-0.0117,-0.0119,-0.016,0,0,0,0,0,0,-0.0085,-0.0086,-0.009,-0.0085,-0.0085,-0.0113,-0.0068,-0.0064,-0.0069,-0.0064,-0.0056,-0.0053,-0.0036,-0.0076,-0.0079,-0.0078,-0.004,-0.0113,-0.0116,-0.0118,-0.0157,-0.0163,-0.0168,0,0,0,0,0,-0.0085,-0.0103,-0.0091,-0.0091,-0.0091,-0.0115,-0.0116,-0.0096,-0.0072,-0.0089,-0.0087,-0.0054,-0.0092,-0.008,-0.0083,-0.0082,-0.0112,-0.0115,-0.0118,-0.0154,-0.0162,-0.0168,0,0,0,0,0,0,-0.0102,-0.01,-0.0086,-0.01,-0.0111,-0.0107,-0.0119,-0.0108,-0.0119,-0.0115,-0.0091,-0.009,-0.0123,-0.0108,-0.0095,-0.0113,-0.0089,-0.0093,-0.0115,-0.0122,-0.0128,-0.0161,-0.0041,0,0,0,0,0,-0.011,-0.0124,-0.0121,-0.0137,-0.014,-0.0132,-0.0139,-0.0133,-0.014,-0.0141,-0.0132,-0.0127,-0.014,-0.0136,-0.0152,-0.0172,-0.0137,-0.0168,-0.0173,-0.0178,-0.0209,-0.0147,-0.015,-0.0129,-0.0129,-0.0129,0,0,-0.0122,-0.0124,-0.0131,-0.0143,-0.0143,-0.0185,-0.0131,-0.0155,-0.0205,-0.0143,-0.0196,-0.0164,-0.0157,-0.0179,-0.0187,-0.0161,-0.0164,-0.0182,-0.0186,-0.0215,-0.0151,-0.0152,-0.0154,-0.0131,-0.013,-0.013,0,0,-0.0169,-0.0153,-0.0186,-0.0203,-0.0218,-0.0226,-0.0238,-0.024,-0.0251,-0.0303,-0.026,-0.0263,-0.0263,-0.0264,-0.0264,-0.0324,-0.0211,-0.0268,-0.0306,-0.0244,-0.0245,-0.0245,-0.0188,-0.0183,-0.0251,-0.0251,-0.0251,0,-0.0181,-0.0222,-0.0202,-0.0246,-0.0276,-0.0252,-0.0313,-0.0337,-0.0355,-0.0365,-0.0335,-0.0332,-0.0333,-0.0355,-0.0348,-0.0345,-0.0247,-0.0275,-0.0249,-0.0249,-0.0249,-0.019,-0.0184,-0.0253,-0.0253,-0.0252,-0.0252,0,-0.0254,-0.0294,-0.0317,-0.0368,-0.0405,-0.0448,-0.048,-0.0507,-0.0506,-0.0503,-0.0521,-0.0506,-0.0487,-0.0465,-0.0423,-0.0396,-0.0308,-0.0274,-0.0227,-0.0253,-0.019,-0.0182,-0.0256,-0.0255,-0.0255,-0.0254,0,0,-0.0264,-0.0351,-0.0361,-0.0403,-0.0473,-0.0503,-0.0601,-0.0656,-0.0688,-0.0681,-0.0706,-0.071,-0.0623,-0.0619,-0.0538,-0.0473,-0.0391,-0.0332,-0.0327,-0.0268,-0.0191,-0.0181,-0.0171,-0.0276,-0.0276,-0.0275,-0.0142,0,-0.0328,-0.0425,-0.0471,-0.0583,-0.0632,-0.0666,-0.0765,-0.0809,-0.0813,-0.0824,-0.079,-0.0777,-0.0702,-0.0641,-0.0577,-0.0428,-0.0371,-0.0429,-0.0185,-0.018,-0.016,-0.0165,-0.0274,-0.0136,-0.0135,-0.0133,-0.0133,0,-0.039,-0.0446,-0.0565,-0.068,-0.0707,-0.0788,-0.0884,-0.0971,-0.0995,-0.0977,-0.0932,-0.0851,-0.078,-0.0707,-0.0511,-0.05,-0.0364,-0.0261,-0.0252,-0.0233,-0.0157,-0.011,-0.0119,-0.012,-0.0121,-0.0122,-0.0123,0,-0.0391,-0.0514,-0.061,-0.0648,-0.0781,-0.0853,-0.0937,-0.1005,-0.1053,-0.1042,-0.1001,-0.0914,-0.0826,-0.067,-0.0466,-0.0424,-0.0237,-0.0179,-0.0074,-0.007,-0.0099,-0.01,-0.0082,-0.0082,-0.0082,-0.0083,-0.0083,0,-0.044,-0.0515,-0.0614,-0.0663,-0.078,-0.0882,-0.0988,-0.105,-0.1107,-0.1105,-0.1054,-0.0975,-0.078,-0.0637,-0.0478,-0.0259,-0.0257,-0.0099,-0.0042,-0.0118,-0.0123,-0.0092,-0.0095,-0.0078,-0.0079,-0.008,-0.0081,0,-0.0451,-0.0517,-0.062,-0.0748,-0.0788,-0.0882,-0.1013,-0.1056,-0.1121,-0.1109,-0.1084,-0.0967,-0.0759,-0.0623,-0.0364,-0.0258,-0.0087,-0.0026,-0.0143,-0.0091,0.0051,0.0044,0.0135,0.0136,0.0137,0.0138,0.0139,0,-0.0474,-0.0522,-0.0646,-0.0688,-0.0756,-0.0873,-0.0938,-0.105,-0.1058,-0.1066,-0.102,-0.0868,-0.0753,-0.0433,-0.029,-0.0073,-0.0037,0.0039,0.0053,0.0023,0.0071,0.0062,0.0054,0.0141,0.0141,0.0142,0.0142,0,-0.0501,-0.0541,-0.0611,-0.068,-0.075,-0.0823,-0.0903,-0.0902,-0.0985,-0.1014,-0.0896,-0.0766,-0.0563,-0.0357,-0.0227,-0.0063,-0.0016,0.0053,0.0053,0.0067,0.0032,0.0076,0.0066,0.0146,0.0145,0.0145,0.0145,0,-0.0507,-0.0546,-0.0607,-0.0669,-0.0736,-0.0765,-0.0815,-0.0802,-0.0843,-0.0847,-0.0775,-0.065,-0.056,-0.0349,-0.0216,-0.0085,-0.0013,0.0055,0.0057,0.0054,-0.0026,-0.0087,0.0032,0,0,0,0,0,-0.0506,-0.0528,-0.0579,-0.0648,-0.0696,-0.0736,-0.078,-0.0811,-0.0838,-0.0737,-0.0777,-0.06,-0.0396,-0.0314,-0.0168,-0.0177,-0.0,-0.0001,0.0077,0.0168,0.0163,0.0082,0,0,0,0,0,0,-0.0507,-0.0551,-0.0569,-0.0599,-0.0626,-0.0682,-0.0709,-0.0727,-0.067,-0.068,-0.0566,-0.0549,-0.035,-0.0478,-0.0161,-0.0127,-0.005,0.0073,0.0077,0.017,0.0166,0.0163,0.0077,0,0,0,0,0]}]]